カタログに戻る

STARLINK-5045

運用中通信VLEO
NORAD 53900·PAYLOAD·🇺🇸 United States

打ち上げ Sep 24, 2022 から Cape Canaveral Space Force Station

Loading…

次のパス (今後24時間)

TLE

最新Source: CelesTrak SupGP

元期: Sep 14, 2026, 22:18 UTC

1 53900C 22119Q   26257.92965278  .00387020  00000+0  11608-1 0  2575
2 53900  53.1595 189.5351 0001504  93.2334  14.5317 15.33723390    11

AllMySatでSTARLINK-5045をリアルタイム追跡

Download on the App Store